EHI
1 3 5 7 9 8 5 2 1 1 1 1 0 0 0 0 0 0 0 0 0 0 0 0 0 1 2 3 1 0 0 0 0 0 0 0 0 0 0 0 0 0 0
1 3 5 7 9 8 5 2 1 0 0 0 0 0 0 0 0 0 0 0 0 0 0 0 0 1 2 3 2 0 0 0 0 0 0 0 0 0 0 0 0 0 0
2 4 6 7 8 8 5 3 1 1 1 1 0 0 0 0 0 0 0 1 0 0 0 0 0 0 1 2 1 0 0 0 0 0 0 0 0 0 0 0 0 0 0
1 3 6 6 6 5 5 4 3 2 2 2 1 0 0 0 0 0 0 0 0 0 0 0 0 0 0 0 0 0 0 0 0 0 0 0 0 0 0 0 0 0 0
0 2 4 5 4 4 4 4 3 3 2 2 2 1 0 0 0 0 0 0 0 0 1 1 1 0 0 0 0 0 0 0 0 0 0 0 0 0 0 0 0 0 0
0 1 3 4 3 3 3 3 3 1 1 1 2 1 0 0 0 0 0 0 0 1 2 2 2 1 0 0 0 0 0 0 0 0 0 0 0 0 0 0 0 0 0
0 1 2 3 3 3 3 3 3 1 1 0 1 1 0 0 0 0 0 0 0 1 2 3 2 1 0 0 0 0 0 0 0 0 0 0 0 0 0 0 0 0 0
1 1 2 3 3 3 3 3 3 3 2 1 0 0 0 0 0 0 0 0 0 1 2 2 1 0 0 0 0 0 0 0 0 0 0 0 0 0 0 0 0 0 0
0 1 1 2 2 2 3 3 3 3 3 2 1 0 0 0 0 0 0 0 0 1 1 1 0 0 0 0 0 0 0 0 0 0 0 0 0 0 0 1 1 0 0
0 0 0 0 0 1 1 2 3 3 3 2 1 0 0 0 0 1 0 0 0 0 0 0 0 0 0 0 0 0 0 0 0 0 0 0 0 0 0 1 2 1 0
0 0 0 0 0 0 0 1 2 3 3 3 1 0 0 0 0 0 0 0 0 0 0 0 0 0 0 0 1 0 0 0 0 0 0 0 0 0 0 1 1 1 0
0 0 0 0 0 0 0 0 2 3 3 3 2 1 0 0 0 0 0 0 0 0 0 0 0 0 0 0 0 0 0 0 0 0 0 0 0 0 0 0 0 0 0
0 0 0 0 0 0 0 1 2 3 3 3 3 1 0 0 0 0 0 0 0 0 0 0 0 0 0 0 0 0 0 0 0 0 0 0 0 0 0 0 0 0 0
0 0 0 0 0 0 0 1 3 3 3 3 2 1 0 0 0 0 0 0 0 0 0 0 0 0 0 0 0 0 0 0 0 0 0 0 0 0 0 0 0 0 0
0 0 0 0 0 0 0 1 2 2 2 1 1 1 0 0 0 0 0 0 0 0 0 0 0 0 0 0 0 0 0 0 0 0 0 0 0 0 0 0 0 0 0
0 0 0 0 0 0 0 1 1 1 1 0 0 0 0 0 0 0 0 0 0 0 0 0 0 0 0 0 0 0 0 0 0 0 0 0 0 0 0 0 0 0 0
0 0 0 0 0 0 0 0 0 0 0 0 0 0 0 0 0 0 0 0 0 0 0 0 0 0 0 0 0 0 0 0 0 0 0 0 0 0 0 0 0 0 0
0 0 0 0 0 0 0 0 0 0 0 0 0 0 0 0 0 0 0 0 0 0 0 0 0 0 0 0 0 0 0 0 0 0 0 0 0 0 0 0 0 0 0
0 0 0 0 0 0 0 0 0 0 0 0 0 0 0 0 0 0 0 0 0 0 0 0 0 0 0 0 0 0 0 0 0 0 0 0 0 0 0 0 0 0 0
0 0 0 0 0 0 0 0 0 0 0 0 0 0 0 0 0 0 0 0 0 0 0 0 0 0 0 0 0 0 0 0 0 0 0 0 0 0 0 0 0 0 0
0 0 0 0 0 0 0 0 0 0 0 0 0 0 0 0 0 0 0 0 0 0 0 0 0 0 0 0 0 0 0 0 0 0 0 0 0 0 0 0 0 0 0
0 0 0 0 0 0 0 0 0 0 0 0 0 0 0 0 0 0 0 0 0 0 0 0 0 0 0 0 0 0 0 0 0 0 0 0 0 0 0 0 0 0 0
0 0 0 0 0 0 0 0 0 0 0 0 0 0 0 0 0 0 0 0 0 0 0 0 0 0 0 0 0 0 0 0 0 0 0 0 0 0 0 0 0 0 0
0 0 0 0 0 0 0 0 0 0 0 0 0 0 0 0 0 0 0 0 0 0 0 0 0 0 0 0 0 0 0 0 0 0 0 0 0 0 0 0 0 0 0
0 0 0 0 0 0 0 0 0 0 0 0 0 0 0 0 0 0 0 0 0 0 0 0 0 0 0 0 0 0 0 0 0 0 0 0 0 0 0 0 0 0 0
0 0 0 0 0 0 0 0 0 0 0 0 0 0 0 0 0 0 0 0 0 0 0 0 0 0 0 0 0 0 0 0 0 0 0 0 0 0 0 0 0 0 0
Wind_Speed
3 5 7 7 7 8 8 8 9 9 9 9 9 9 9 9 10 10 10 10 10 9 9 9 9 9 9 9 9 9 9 9 9 9 8 8 9 9 9 7 5 9 11
4 4 6 7 8 8 9 9 8 9 9 9 9 9 9 9 9 9 10 10 9 9 9 9 9 9 9 9 9 9 9 9 9 8 5 6 7 7 8 7 6 8 10
4 4 5 7 8 9 9 9 9 9 9 9 9 9 9 10 10 10 9 10 10 9 9 9 9 9 9 9 9 9 8 8 8 5 1 4 7 7 7 7 7 9 9
4 4 6 8 9 9 10 10 9 9 9 9 9 9 9 9 10 10 9 10 9 9 9 9 9 9 8 8 8 8 8 8 6 3 2 4 5 7 6 7 7 8 8
4 5 7 9 9 10 9 9 9 9 9 9 9 9 9 9 9 9 9 9 9 9 9 8 8 8 8 7 7 7 7 6 3 1 3 3 4 6 5 6 6 7 7
5 5 7 9 10 10 10 10 9 9 9 9 9 9 9 9 9 9 9 8 8 8 8 8 8 8 8 7 7 7 6 5 1 2 3 3 4 5 4 5 5 6 6
5 6 7 9 9 10 10 10 10 9 9 10 9 9 9 9 9 9 9 9 8 8 8 8 8 8 7 7 6 6 6 5 2 2 2 3 4 5 4 4 4 5 5
6 6 6 9 10 10 11 10 11 10 9 9 9 9 9 10 9 9 9 10 9 8 8 8 8 7 7 6 6 6 6 4 1 2 2 2 5 3 3 3 4 4 4
6 6 6 6 7 9 10 11 11 11 10 9 9 10 10 10 9 9 9 9 9 9 8 8 8 8 7 7 6 6 5 5 2 2 2 2 4 2 2 3 3 3 4
7 7 7 7 6 6 6 10 10 11 10 10 10 9 9 8 8 9 9 9 9 9 9 8 8 8 8 7 7 6 4 3 2 2 1 3 4 2 2 2 2 2 3
7 7 7 7 7 6 5 7 7 8 9 8 7 8 6 5 5 5 8 9 9 9 9 8 7 7 6 5 6 5 3 2 2 2 2 4 3 2 2 2 2 2 3
6 7 6 6 6 6 5 4 4 4 5 5 5 5 4 4 4 5 6 8 8 8 7 7 7 5 4 2 3 3 1 2 2 1 2 4 3 2 1 1 1 1 2
5 6 6 6 6 5 4 4 3 3 4 5 6 6 4 3 3 3 2 3 4 5 4 5 4 3 3 3 2 2 3 2 2 2 2 4 3 2 1 1 0 0 1
4 5 5 5 5 5 5 4 4 3 3 4 5 6 4 3 3 3 3 3 3 3 4 4 3 4 3 3 3 3 3 2 2 2 2 4 4 3 2 2 1 1 2
4 5 5 5 5 4 4 4 4 4 4 4 4 5 5 3 3 3 3 3 3 3 3 3 4 4 4 3 3 3 4 3 3 3 1 3 4 3 2 2 2 2 2
3 4 4 5 5 5 4 4 4 4 4 4 4 5 6 4 4 3 3 3 3 3 4 3 4 3 3 3 3 4 4 4 3 3 3 2 2 3 2 2 3 3 2
2 3 4 4 4 5 4 4 3 4 4 4 4 5 5 5 5 4 3 3 3 3 4 3 4 3 3 3 4 4 3 4 4 4 4 3 2 2 2 2 3 3 2
2 3 3 3 4 4 4 4 3 3 4 4 4 4 6 6 5 4 3 4 4 3 3 3 3 3 3 3 4 3 3 3 4 4 3 3 3 3 2 1 2 2 2
2 2 2 3 3 3 3 3 3 3 4 4 4 4 5 6 6 4 3 3 4 3 3 3 3 3 4 4 4 4 4 3 3 3 3 3 3 2 2 1 2 2 2
1 2 2 3 3 3 2 2 2 3 3 4 4 5 6 5 6 5 3 4 4 3 3 3 3 3 3 4 4 4 4 4 3 3 3 3 2 2 2 2 2 2 2
1 1 2 2 3 2 2 2 2 2 3 3 4 6 6 6 6 5 4 4 4 3 4 4 3 3 3 3 3 4 3 4 3 2 2 3 3 2 2 2 2 2 2
1 1 1 1 2 2 2 2 1 2 2 3 3 5 6 6 6 5 5 4 4 4 4 4 3 3 3 2 3 3 3 3 2 2 3 3 3 2 2 3 2 2 2
2 1 1 1 1 2 2 1 1 1 1 2 3 4 5 6 6 6 6 5 5 4 4 4 4 4 3 3 2 3 3 3 4 3 3 3 3 3 3 3 3 3 3
2 1 0 1 1 2 2 1 2 2 2 3 3 3 5 5 6 6 6 5 5 4 5 4 4 4 4 3 3 3 4 4 4 4 3 3 4 4 4 3 3 4 4
2 1 1 1 1 1 1 1 1 2 2 2 3 4 4 4 5 5 6 5 5 4 5 5 5 5 4 4 4 3 4 4 6 5 6 5 4 4 4 4 4 3 4
2 1 1 1 0 1 1 1 2 2 3 3 4 4 4 3 4 5 6 5 5 5 5 6 6 6 5 6 5 5 5 4 4 5 6 6 6 5 5 4 4 4 4
Wind_Direction
3 356 358 10 37 45 48 51 49 47 52 55 56 55 53 57 55 53 53 54 54 55 56 60 63 62 60 63 63 64 64 64 66 65 63 68 76 86 87 85 98 100 98
340 359 15 21 45 49 49 50 50 50 51 52 53 53 54 55 54 53 52 51 51 53 55 56 58 59 58 60 63 63 63 63 62 59 59 85 76 80 85 75 63 94 103
12 25 36 36 48 50 50 49 48 50 51 52 52 52 52 53 52 51 50 49 49 49 50 51 54 56 57 58 60 60 61 62 59 48 40 94 90 83 86 84 89 101 106
25 33 36 44 50 50 48 47 46 46 51 51 49 51 52 51 49 48 48 48 47 47 47 48 50 51 54 56 60 62 61 61 53 3 80 78 87 85 90 91 97 103 103
39 41 45 43 51 49 46 45 42 44 48 47 45 47 49 49 48 47 46 47 46 44 45 47 48 47 49 53 59 61 59 55 33 338 63 70 81 84 88 94 98 106 108
45 42 48 42 48 48 46 43 43 45 48 44 42 45 46 46 46 45 43 44 45 44 44 46 46 45 45 49 55 57 54 38 316 58 63 63 78 81 86 97 100 109 115
48 43 48 43 46 48 46 43 43 45 47 45 42 42 43 44 45 43 41 41 43 43 43 44 44 43 41 44 51 52 45 7 356 43 48 59 62 64 78 95 107 113 118
47 43 47 46 43 45 43 42 41 43 44 42 40 39 38 39 39 38 39 38 38 40 40 40 40 38 35 40 46 47 36 356 2 37 36 55 52 47 77 88 93 109 122
47 43 40 41 44 45 43 42 41 40 40 38 38 39 36 35 34 34 34 33 33 34 35 35 33 34 32 36 41 42 34 350 335 31 22 49 41 39 68 89 101 111 120
47 40 35 33 34 37 45 44 41 41 39 36 37 37 34 34 33 32 31 30 29 29 29 33 31 30 29 34 38 35 16 310 354 15 16 44 33 33 57 73 95 131 126
45 38 32 30 30 28 36 39 40 43 39 33 34 32 27 21 23 27 28 26 25 25 22 24 24 24 20 36 37 19 332 333 347 357 13 26 17 20 33 66 75 119 141
42 35 29 27 24 25 27 32 28 31 32 28 25 22 19 19 15 13 29 24 22 20 16 17 12 8 357 11 26 341 334 342 344 350 23 17 356 354 7 55 77 92 149
49 38 30 27 24 23 23 25 24 23 24 22 21 16 13 17 14 8 6 13 9 6 1 3 351 355 354 352 342 337 341 336 331 335 14 12 339 327 325 288 245 222 173
54 42 34 28 28 25 24 25 25 26 23 21 18 13 8 12 5 5 0 355 354 353 350 344 339 343 343 343 337 334 330 323 322 321 3 9 339 313 295 276 247 226 211
55 42 33 29 30 27 29 24 26 23 22 20 15 13 4 1 358 358 358 352 350 349 344 335 335 339 334 333 330 327 320 312 310 307 320 4 335 323 302 283 261 235 211
52 41 36 35 32 31 33 30 25 22 18 14 18 16 5 357 354 349 349 349 349 345 339 329 330 330 329 325 319 316 308 303 299 300 302 296 313 315 307 288 275 255 232
57 45 39 38 33 35 32 30 29 24 17 15 12 15 11 1 355 353 343 348 351 341 334 330 330 326 328 324 313 309 305 301 297 296 297 294 281 266 275 281 278 264 244
69 54 40 34 34 37 36 29 26 24 23 19 12 11 12 6 359 351 345 348 347 337 330 331 332 327 322 318 315 309 302 299 295 294 290 288 287 276 251 270 282 278 261
81 68 54 40 32 30 36 37 30 26 27 22 16 11 5 5 358 350 345 343 338 332 325 321 323 319 314 315 312 309 300 290 289 291 288 287 286 289 284 253 256 266 267
90 70 57 52 34 24 31 43 38 32 25 22 17 9 1 2 358 349 340 342 334 329 325 318 314 314 311 309 303 297 291 284 273 278 285 282 273 277 289 282 256 242 228
99 76 56 45 31 20 12 8 11 15 10 15 13 8 3 359 357 351 342 339 330 324 323 317 313 303 312 315 301 298 284 266 261 265 280 288 285 283 283 286 273 268 236
141 103 65 48 31 19 6 353 344 352 1 5 360 3 1 358 356 346 343 338 330 319 318 316 311 302 306 315 302 296 289 263 242 273 281 288 289 284 271 271 272 263 263
169 153 72 45 32 21 8 6 355 345 336 346 350 351 354 353 351 346 339 334 328 321 312 309 293 288 292 289 285 287 284 288 311 260 264 275 284 281 273 264 265 261 251
180 155 99 52 37 30 14 360 354 334 338 340 334 334 340 347 349 345 338 333 326 320 314 309 291 280 275 271 270 267 274 290 279 289 268 273 285 284 279 274 260 256 252
173 163 145 92 48 34 18 1 339 335 333 328 324 329 336 341 344 342 336 330 323 314 310 309 298 277 267 265 261 263 265 266 257 265 276 278 276 276 279 276 266 254 252
168 164 163 142 60 20 2 342 329 327 325 324 324 325 329 328 329 336 330 325 321 314 309 302 296 284 268 261 257 250 253 251 250 257 270 280 278 278 278 268 260 253 249